Time,TemperatureF,DewpointF,PressureIn,WindDirection,WindDirectionDegrees,WindSpeedMPH,WindSpeedGustMPH,Humidity,HourlyPrecipIn,Conditions,Clouds,dailyrainin,SolarRadiationWatts/m^2,SoftwareType,DateUTC
2013-01-11 00:04:00,61.0,50.0,-100.00,ESE,112,5.0,9.0,68,0.00,,,0.00,0.000000,,2013-01-11 05:04:00,
2013-01-11 00:33:00,61.0,50.0,-100.00,SE,128,6.0,11.0,66,0.00,,,0.00,0.000000,,2013-01-11 05:33:00,
2013-01-11 00:43:00,61.0,50.0,-100.00,SE,128,6.0,11.0,66,0.00,,,0.00,0.000000,,2013-01-11 05:43:00,
2013-01-11 00:53:00,61.0,50.0,-100.00,SE,128,6.0,11.0,66,0.00,,,0.00,0.000000,,2013-01-11 05:53:00,
2013-01-11 01:03:00,61.0,50.0,-100.00,SE,128,6.0,11.0,66,0.00,,,0.00,0.000000,,2013-01-11 06:03:00,
2013-01-11 01:33:00,61.0,50.0,-100.00,ESE,119,8.0,16.0,66,0.00,,,0.00,0.000000,,2013-01-11 06:33:00,
2013-01-11 01:42:00,61.0,50.0,-100.00,ESE,119,8.0,16.0,66,0.00,,,0.00,0.000000,,2013-01-11 06:42:00,
2013-01-11 01:52:00,61.0,50.0,-100.00,ESE,119,8.0,16.0,66,0.00,,,0.00,0.000000,,2013-01-11 06:52:00,
2013-01-11 02:02:00,61.0,50.0,-100.00,ESE,119,8.0,16.0,66,0.00,,,0.00,0.000000,,2013-01-11 07:02:00,
2013-01-11 02:32:00,59.0,49.0,-100.00,ESE,123,8.0,17.0,69,0.00,,,-99.99,0.000000,,2013-01-11 07:32:00,
2013-01-11 02:42:00,59.0,49.0,-100.00,ESE,123,8.0,17.0,69,0.00,,,-99.99,0.000000,,2013-01-11 07:42:00,
2013-01-11 02:52:00,59.0,49.0,-100.00,ESE,123,8.0,17.0,69,0.00,,,-99.99,0.000000,,2013-01-11 07:52:00,
2013-01-11 03:02:00,59.0,49.0,-100.00,ESE,123,8.0,17.0,69,0.00,,,-99.99,0.000000,,2013-01-11 08:02:00,
2013-01-11 03:32:00,59.0,50.0,-100.00,SE,125,9.0,15.0,72,0.00,,,0.00,0.000000,,2013-01-11 08:32:00,
2013-01-11 03:42:00,59.0,50.0,-100.00,SE,125,9.0,15.0,72,0.00,,,0.00,0.000000,,2013-01-11 08:42:00,
2013-01-11 03:53:00,59.0,50.0,-100.00,SE,125,9.0,15.0,72,0.00,,,0.00,0.000000,,2013-01-11 08:53:00,
2013-01-11 04:02:00,59.0,50.0,-100.00,SE,125,9.0,15.0,72,0.00,,,0.00,0.000000,,2013-01-11 09:02:00,
2013-01-11 04:32:00,59.0,50.0,-100.00,ESE,120,6.0,15.0,72,0.00,,,0.00,0.000000,,2013-01-11 09:32:00,
2013-01-11 04:42:00,59.0,50.0,-100.00,ESE,120,6.0,15.0,72,0.00,,,0.00,0.000000,,2013-01-11 09:42:00,
2013-01-11 04:52:00,59.0,50.0,-100.00,ESE,120,6.0,15.0,72,0.00,,,0.00,0.000000,,2013-01-11 09:52:00,
2013-01-11 05:02:00,59.0,50.0,-100.00,ESE,120,6.0,15.0,72,0.00,,,0.00,0.000000,,2013-01-11 10:02:00,
2013-01-11 05:32:00,56.0,49.0,-100.00,North,1,2.0,13.0,78,0.00,,,0.00,0.000000,,2013-01-11 10:32:00,
2013-01-11 05:43:00,56.0,49.0,-100.00,North,1,2.0,13.0,78,0.00,,,0.00,0.000000,,2013-01-11 10:43:00,
2013-01-11 05:53:00,56.0,49.0,-100.00,North,1,2.0,13.0,78,0.00,,,0.00,0.000000,,2013-01-11 10:53:00,
2013-01-11 06:03:00,56.0,49.0,-100.00,North,1,2.0,13.0,78,0.00,,,0.00,0.000000,,2013-01-11 11:03:00,
2013-01-11 06:33:00,55.0,50.0,-100.00,WNW,290,3.0,4.0,83,0.00,,,0.00,0.000000,,2013-01-11 11:33:00,
2013-01-11 06:43:00,55.0,50.0,-100.00,WNW,290,3.0,4.0,83,0.00,,,0.00,0.000000,,2013-01-11 11:43:00,
2013-01-11 06:53:00,55.0,50.0,-100.00,WNW,290,3.0,4.0,83,0.00,,,0.00,0.000000,,2013-01-11 11:53:00,
2013-01-11 07:03:00,55.0,50.0,-100.00,WNW,290,3.0,4.0,83,0.00,,,0.00,0.000000,,2013-01-11 12:03:00,
2013-01-11 07:33:00,54.0,51.0,-100.00,WSW,249,2.0,5.0,89,0.00,,,-99.99,0.000000,,2013-01-11 12:33:00,
2013-01-11 07:43:00,54.0,51.0,-100.00,WSW,249,2.0,5.0,89,0.00,,,-99.99,0.000000,,2013-01-11 12:43:00,
2013-01-11 07:53:00,54.0,51.0,-100.00,WSW,249,2.0,5.0,89,0.00,,,-99.99,0.000000,,2013-01-11 12:53:00,
2013-01-11 08:03:00,54.0,51.0,-100.00,WSW,249,2.0,5.0,89,0.00,,,-99.99,0.000000,,2013-01-11 13:03:00,
2013-01-11 08:33:00,54.0,54.0,-100.00,WNW,288,1.0,5.0,99,0.02,,,-99.99,0.000000,,2013-01-11 13:33:00,
2013-01-11 08:43:00,54.0,54.0,-100.00,WNW,288,1.0,5.0,99,0.02,,,-99.99,0.000000,,2013-01-11 13:43:00,
2013-01-11 08:53:00,54.0,54.0,-100.00,WNW,288,1.0,5.0,99,0.02,,,-99.99,0.000000,,2013-01-11 13:53:00,
2013-01-11 09:03:00,54.0,54.0,-100.00,WNW,288,1.0,5.0,99,0.02,,,-99.99,0.000000,,2013-01-11 14:03:00,
2013-01-11 09:33:00,55.0,55.0,-100.00,WSW,256,3.0,5.0,100,0.00,,,0.02,37.000000,,2013-01-11 14:33:00,
2013-01-11 09:43:00,55.0,55.0,-100.00,WSW,256,3.0,5.0,100,0.00,,,0.02,37.000000,,2013-01-11 14:43:00,
2013-01-11 09:53:00,55.0,55.0,-100.00,WSW,256,3.0,5.0,100,0.00,,,0.02,37.000000,,2013-01-11 14:53:00,
2013-01-11 10:03:00,55.0,55.0,-100.00,WSW,256,3.0,5.0,100,0.00,,,0.02,37.000000,,2013-01-11 15:03:00,
2013-01-11 10:33:00,56.0,56.0,-100.00,East,98,0.0,4.0,100,0.00,,,0.02,46.000000,,2013-01-11 15:33:00,
2013-01-11 10:43:00,56.0,56.0,-100.00,East,98,0.0,4.0,100,0.00,,,0.02,46.000000,,2013-01-11 15:43:00,
2013-01-11 10:53:00,56.0,56.0,-100.00,East,98,0.0,4.0,100,0.00,,,0.02,46.000000,,2013-01-11 15:53:00,
2013-01-11 11:03:00,56.0,56.0,-100.00,East,98,0.0,4.0,100,0.00,,,0.02,46.000000,,2013-01-11 16:03:00,
2013-01-11 11:33:00,58.0,57.0,-100.00,WSW,240,2.0,5.0,98,0.02,,,0.04,58.000000,,2013-01-11 16:33:00,
2013-01-11 11:43:00,58.0,57.0,-100.00,WSW,240,2.0,5.0,98,0.02,,,0.04,58.000000,,2013-01-11 16:43:00,
2013-01-11 11:53:00,58.0,57.0,-100.00,WSW,240,2.0,5.0,98,0.02,,,0.04,58.000000,,2013-01-11 16:53:00,
2013-01-11 12:03:00,58.0,57.0,-100.00,WSW,240,2.0,5.0,98,0.02,,,0.04,58.000000,,2013-01-11 17:03:00,
2013-01-11 12:33:00,59.0,58.0,-100.00,NE,53,0.0,2.0,95,0.00,,,0.04,85.000000,,2013-01-11 17:33:00,
2013-01-11 12:43:00,59.0,58.0,-100.00,NE,53,0.0,2.0,95,0.00,,,0.04,85.000000,,2013-01-11 17:43:00,
2013-01-11 12:53:00,59.0,58.0,-100.00,NE,53,0.0,2.0,95,0.00,,,0.04,85.000000,,2013-01-11 17:53:00,
2013-01-11 13:04:00,59.0,58.0,-100.00,NE,53,0.0,2.0,95,0.00,,,0.04,85.000000,,2013-01-11 18:04:00,
2013-01-11 13:33:00,63.0,63.0,-100.00,SW,224,3.0,7.0,99,0.01,,,0.05,134.000000,,2013-01-11 18:33:00,
2013-01-11 13:43:00,63.0,63.0,-100.00,SW,224,3.0,7.0,99,0.01,,,0.05,134.000000,,2013-01-11 18:43:00,
2013-01-11 13:53:00,63.0,63.0,-100.00,SW,224,3.0,7.0,99,0.01,,,0.05,134.000000,,2013-01-11 18:53:00,
2013-01-11 14:03:00,63.0,63.0,-100.00,SW,224,3.0,7.0,99,0.01,,,0.05,134.000000,,2013-01-11 19:03:00,
2013-01-11 14:33:00,66.0,63.0,-100.00,SW,224,4.0,8.0,89,0.00,,,0.05,162.000000,,2013-01-11 19:33:00,
2013-01-11 14:43:00,66.0,63.0,-100.00,SW,224,4.0,8.0,89,0.00,,,0.05,162.000000,,2013-01-11 19:43:00,
2013-01-11 14:54:00,66.0,63.0,-100.00,SW,224,4.0,8.0,89,0.00,,,0.05,162.000000,,2013-01-11 19:54:00,
2013-01-11 15:03:00,66.0,63.0,-100.00,SW,224,4.0,8.0,89,0.00,,,0.05,162.000000,,2013-01-11 20:03:00,
2013-01-11 15:33:00,67.0,61.0,-100.00,WSW,248,4.0,12.0,80,0.00,,,0.05,142.000000,,2013-01-11 20:33:00,
2013-01-11 15:43:00,67.0,61.0,-100.00,WSW,248,4.0,12.0,80,0.00,,,0.05,142.000000,,2013-01-11 20:43:00,
2013-01-11 15:53:00,67.0,61.0,-100.00,WSW,248,4.0,12.0,80,0.00,,,0.05,142.000000,,2013-01-11 20:53:00,
2013-01-11 16:03:00,67.0,61.0,-100.00,WSW,248,4.0,12.0,80,0.00,,,0.05,142.000000,,2013-01-11 21:03:00,
2013-01-11 16:33:00,69.0,60.0,-100.00,SW,230,6.0,12.0,74,0.00,,,0.05,140.000000,,2013-01-11 21:33:00,
2013-01-11 16:43:00,69.0,60.0,-100.00,SW,230,6.0,12.0,74,0.00,,,0.05,140.000000,,2013-01-11 21:43:00,
2013-01-11 16:53:00,69.0,60.0,-100.00,SW,230,6.0,12.0,74,0.00,,,0.05,140.000000,,2013-01-11 21:53:00,
2013-01-11 17:03:00,69.0,60.0,-100.00,SW,230,6.0,12.0,74,0.00,,,0.05,140.000000,,2013-01-11 22:03:00,
2013-01-11 17:33:00,68.0,60.0,-100.00,WSW,256,4.0,12.0,75,0.00,,,0.05,82.000000,,2013-01-11 22:33:00,
2013-01-11 17:43:00,68.0,60.0,-100.00,WSW,256,4.0,12.0,75,0.00,,,0.05,82.000000,,2013-01-11 22:43:00,
2013-01-11 17:53:00,68.0,60.0,-100.00,WSW,256,4.0,12.0,75,0.00,,,0.05,82.000000,,2013-01-11 22:53:00,
2013-01-11 18:02:00,68.0,60.0,-100.00,WSW,256,4.0,12.0,75,0.00,,,0.05,82.000000,,2013-01-11 23:02:00,
2013-01-11 18:33:00,65.0,59.0,-100.00,WSW,243,4.0,8.0,81,0.00,,,0.05,12.000000,,2013-01-11 23:33:00,
2013-01-11 18:43:00,65.0,59.0,-100.00,WSW,243,4.0,8.0,81,0.00,,,0.05,12.000000,,2013-01-11 23:43:00,
2013-01-11 18:54:00,65.0,59.0,-100.00,WSW,243,4.0,8.0,81,0.00,,,0.05,12.000000,,2013-01-11 23:54:00,
2013-01-11 19:03:00,65.0,59.0,-100.00,WSW,243,4.0,8.0,81,0.00,,,0.05,12.000000,,2013-01-12 00:03:00,
2013-01-11 19:33:00,62.0,58.0,-100.00,South,187,3.0,8.0,87,0.00,,,0.05,0.000000,,2013-01-12 00:33:00,
2013-01-11 19:43:00,62.0,58.0,-100.00,South,187,3.0,8.0,87,0.00,,,0.05,0.000000,,2013-01-12 00:43:00,
2013-01-11 19:53:00,62.0,58.0,-100.00,South,187,3.0,8.0,87,0.00,,,0.05,0.000000,,2013-01-12 00:53:00,
2013-01-11 20:03:00,62.0,58.0,-100.00,South,187,3.0,8.0,87,0.00,,,0.05,0.000000,,2013-01-12 01:03:00,
2013-01-11 20:33:00,59.0,57.0,-100.00,SSW,202,2.0,4.0,94,0.00,,,0.05,0.000000,,2013-01-12 01:33:00,
2013-01-11 20:43:00,59.0,57.0,-100.00,SSW,202,2.0,4.0,94,0.00,,,0.05,0.000000,,2013-01-12 01:43:00,
2013-01-11 20:53:00,59.0,57.0,-100.00,SSW,202,2.0,4.0,94,0.00,,,0.05,0.000000,,2013-01-12 01:53:00,
2013-01-11 21:02:00,59.0,57.0,-100.00,SSW,202,2.0,4.0,94,0.00,,,0.05,0.000000,,2013-01-12 02:02:00,
2013-01-11 21:33:00,56.0,56.0,-100.00,South,185,1.0,4.0,100,0.00,,,0.05,0.000000,,2013-01-12 02:33:00,
2013-01-11 21:43:00,56.0,56.0,-100.00,South,185,1.0,4.0,100,0.00,,,0.05,0.000000,,2013-01-12 02:43:00,
2013-01-11 21:53:00,56.0,56.0,-100.00,South,185,1.0,4.0,100,0.00,,,0.05,0.000000,,2013-01-12 02:53:00,
2013-01-11 22:03:00,56.0,56.0,-100.00,South,185,1.0,4.0,100,0.00,,,0.05,0.000000,,2013-01-12 03:03:00,
2013-01-11 22:33:00,55.0,55.0,-100.00,SSE,155,1.0,4.0,100,0.00,,,0.05,0.000000,,2013-01-12 03:33:00,
2013-01-11 22:43:00,55.0,55.0,-100.00,SSE,155,1.0,4.0,100,0.00,,,0.05,0.000000,,2013-01-12 03:43:00,
2013-01-11 22:53:00,55.0,55.0,-100.00,SSE,155,1.0,4.0,100,0.00,,,0.05,0.000000,,2013-01-12 03:53:00,
2013-01-11 23:03:00,55.0,55.0,-100.00,SSE,155,1.0,4.0,100,0.00,,,0.05,0.000000,,2013-01-12 04:03:00,
2013-01-11 23:33:00,57.0,57.0,-100.00,SW,225,1.0,5.0,100,0.00,,,0.05,0.000000,,2013-01-12 04:33:00,
2013-01-11 23:43:00,57.0,57.0,-100.00,SW,225,1.0,5.0,100,0.00,,,0.05,0.000000,,2013-01-12 04:43:00,
2013-01-11 23:52:00,57.0,57.0,-100.00,SW,225,1.0,5.0,100,0.00,,,0.05,0.000000,,2013-01-12 04:52:00,